{"data":{"norad_id":64473,"epoch":"2026-09-20T08:12:49.681152Z","epoch_age_seconds":145259,"freshness":"FRESH","line1":"1 64473U 25133B   26263.34224168  .00025116  00000+0  75187-3 0  9992","line2":"2 64473  53.1591 290.3180 0001601  99.0225 261.0959 15.34404281 71022","mean_motion":15.34404281,"eccentricity":0.0001601,"inclination_deg":53.1591,"raan_deg":290.318,"arg_perigee_deg":99.0225,"mean_anomaly_deg":261.0959,"bstar":0.00075187,"rev_number":7102,"period_min":93.847496245352,"perigee_km":461.59529971717,"apogee_km":463.78573268785,"semimajor_km":6840.8275162025,"source":"CELESTRAK","updated_at":"2026-09-21T09:00:35.358240Z"}}